Location: Hawks Ness
(60.2333°N, 1.1667°W)
Time: 17:42:06
(UTC+00:00)

Cosmos 2154 Rocket - Pass Details

Date: 22 October 2019
Orbit: 967 x 996 km, 82.9° (Epoch: 16 November)

Event Time Altitude Azimuth Distance (km) Brightness Sun altitude
Rises 05:41:19 0° 213° (SSW) 3,651 6.7 -10.5°
Reaches altitude 10° 05:43:54 10° 219° (SW) 2,709 6.0 -10.2°
Maximum altitude 05:49:54 50° 294° (WNW) 1,229 4.2 -9.4°
Drops below altitude 10° 05:55:59 10° 9° (N) 2,735 6.4 -8.7°
Sets 05:58:37 0° 15° (NNE) 3,690 7.1 -8.3°
